| time (UTC) | temp F | wind direction | speed MPH | gust MPH | rain 1hr in | rain 24hr in | rain mn in | humidity % | barometer mb |
| 20260507143211 | 0 | 2.0 | 6.0 | 0.00 | 0.00 | 0.00 | 1005.5 | ||
| 20260507141709 | 0 | 2.0 | 9.0 | 0.00 | 0.00 | 0.00 | 1005.6 | ||
| 20260507140209 | 0 | 4.0 | 8.0 | 0.00 | 0.00 | 0.00 | 1005.6 | ||
| 20260507134709 | 0 | 4.0 | 7.0 | 0.00 | 0.00 | 0.00 | 1005.7 | ||
| 20260507133209 | 0 | 7.0 | 10.0 | 0.00 | 0.00 | 0.00 | 1006.0 | ||
| 20260507131709 | 0 | 4.0 | 8.0 | 0.00 | 0.00 | 0.00 | 1006.1 | ||
| 20260507130209 | 0 | 4.0 | 7.0 | 0.00 | 0.00 | 0.00 | 1006.0 | ||
| 20260507124709 | 0 | 4.0 | 7.0 | 0.00 | 0.00 | 0.00 | 1005.9 | ||
| 20260507123209 | 0 | 2.0 | 7.0 | 0.00 | 0.00 | 0.00 | 1005.8 | ||
| 20260507121709 | 0 | 4.0 | 7.0 | 0.00 | 0.00 | 0.00 | 1005.6 | ||
| 20260507120209 | 0 | 4.0 | 6.0 | 0.00 | 0.00 | 0.00 | 1005.5 | ||
| 20260507114709 | 0 | 1.0 | 8.0 | 0.00 | 0.00 | 0.00 | 1005.6 | ||
| 20260507113209 | 0 | 2.0 | 6.0 | 0.00 | 0.00 | 0.00 | 1005.6 | ||
| 20260507111709 | 0 | 2.0 | 7.0 | 0.00 | 0.00 | 0.00 | 1006.0 | ||
| 20260507110209 | 0 | 1.0 | 4.0 | 0.00 | 0.00 | 0.00 | 1005.9 | ||
| 20260507104709 | 0 | 1.0 | 5.0 | 0.00 | 0.00 | 0.00 | 1006.0 | ||
| 20260507103209 | 0 | 1.0 | 4.0 | 0.00 | 0.00 | 0.00 | 1005.8 | ||
| 20260507101709 | 0 | 1.0 | 4.0 | 0.00 | 0.00 | 0.00 | 1005.9 | ||
| 20260507100209 | 0 | 2.0 | 6.0 | 0.00 | 0.00 | 0.00 | 1005.9 | ||
| 20260507094709 | 0 | 5.0 | 8.0 | 0.00 | 0.00 | 0.00 | 1005.8 | ||
| 20260507093210 | 0 | 3.0 | 10.0 | 0.00 | 0.00 | 0.00 | 1005.8 | ||
| 20260507091709 | 0 | 2.0 | 6.0 | 0.00 | 0.00 | 0.00 | 1005.6 | ||
| 20260507090209 | 0 | 4.0 | 9.0 | 0.00 | 0.00 | 0.00 | 1005.4 | ||
| 20260507084709 | 0 | 0.0 | 6.0 | 0.00 | 0.00 | 0.00 | 1005.1 | ||
| 20260507083210 | 0 | 2.0 | 8.0 | 0.00 | 0.00 | 0.00 | 1005.0 | ||
| 20260507081709 | 0 | 3.0 | 8.0 | 0.00 | 0.00 | 0.00 | 1004.9 | ||
| 20260507080209 | 0 | 3.0 | 6.0 | 0.00 | 0.00 | 0.00 | 1004.9 | ||
| 20260507074709 | 0 | 3.0 | 5.0 | 0.00 | 0.00 | 0.00 | 1004.9 | ||
| 20260507073208 | 0 | 2.0 | 3.0 | 0.00 | 0.00 | 0.00 | 1004.9 | ||
| 20260507071709 | 0 | 0.0 | 1.0 | 0.00 | 0.00 | 0.00 | 1004.9 | ||
| 20260507070208 | 0 | 0.0 | 0.0 | 0.00 | 0.00 | 0.00 | 1004.6 | ||
| 20260507064709 | 0 | 0.0 | 1.0 | 0.00 | 0.00 | 0.00 | 1004.6 | ||
| 20260507063210 | 0 | 0.0 | 1.0 | 0.00 | 0.00 | 0.00 | 1004.5 | ||
| 20260507061708 | 0 | 0.0 | 0.0 | 0.00 | 0.00 | 0.00 | 1004.2 | ||
| 20260507060210 | 0 | 0.0 | 0.0 | 0.00 | 0.00 | 0.00 | 1004.1 | ||
| 20260507054709 | 0 | 0.0 | 0.0 | 0.00 | 0.00 | 0.00 | 1004.0 | ||
| 20260507053210 | 0 | 0.0 | 0.0 | 0.00 | 0.00 | 0.00 | 1004.0 | ||
| 20260507051708 | 0 | 0.0 | 0.0 | 0.00 | 0.00 | 0.00 | 1003.9 | ||
| 20260507050209 | 0 | 0.0 | 0.0 | 0.00 | 0.00 | 0.00 | 1003.6 | ||
| 20260507044708 | 0 | 0.0 | 0.0 | 0.00 | 0.00 | 0.00 | 1003.4 | ||
| 20260507043209 | 0 | 0.0 | 0.0 | 0.00 | 0.00 | 0.00 | 1003.5 | ||
| 20260507041709 | 0 | 0.0 | 0.0 | 0.00 | 0.00 | 0.00 | 1003.5 | ||
| 20260507040210 | 0 | 0.0 | 1.0 | 0.00 | 0.00 | 0.00 | 1003.5 | ||
| 20260507034501 | 0 | 0.0 | 0.0 | 0.00 | 0.00 | 0.00 | 1003.3 | ||
| 20260507033002 | 0 | 0.0 | 0.0 | 0.00 | 0.00 | 0.00 | 1003.1 | ||
| 20260507031502 | 0 | 0.0 | 1.0 | 0.00 | 0.00 | 0.00 | 1003.1 | ||
| 20260507030001 | 0 | 0.0 | 0.0 | 0.00 | 0.00 | 0.00 | 1003.1 | ||
| 20260507024501 | 0 | 0.0 | 0.0 | 0.00 | 0.00 | 0.00 | 1003.1 | ||
| 20260507023001 | 0 | 0.0 | 0.0 | 0.00 | 0.00 | 0.00 | 1003.0 | ||
| 20260507021501 | 0 | 0.0 | 1.0 | 0.00 | 0.00 | 0.00 | 1003.0 | ||
| 20260507020002 | 0 | 0.0 | 2.0 | 0.00 | 0.00 | 0.00 | 1002.8 | ||
| 20260507014502 | 0 | 1.0 | 2.0 | 0.00 | 0.00 | 0.00 | 1002.8 | ||
| 20260507013002 | 0 | 1.0 | 2.0 | 0.00 | 0.00 | 0.00 | 1002.6 | ||
| 20260507011502 | 0 | 0.0 | 0.0 | 0.00 | 0.00 | 0.00 | 1002.7 | ||
| 20260507010004 | 0 | 0.0 | 1.0 | 0.00 | 0.00 | 0.00 | 1002.7 | ||
| 20260507004501 | 0 | 0.0 | 0.0 | 0.00 | 0.00 | 0.00 | 1002.7 | ||
| 20260507003001 | 0 | 0.0 | 0.0 | 0.00 | 0.00 | 0.00 | 1002.7 | ||
| 20260507001502 | 0 | 0.0 | 0.0 | 0.00 | 0.00 | 0.00 | 1002.6 | ||
| 20260507000002 | 0 | 0.0 | 1.0 | 0.00 | 0.00 | 0.00 | 1002.5 | ||
| 20260506234502 | 0 | 0.0 | 0.0 | 0.00 | 0.00 | 0.00 | 1002.7 | ||
| 20260506233002 | 0 | 0.0 | 0.0 | 0.00 | 0.00 | 0.00 | 1002.8 | ||
| 20260506231502 | 0 | 0.0 | 0.0 | 0.00 | 0.00 | 0.00 | 1002.8 | ||
| 20260506230003 | 0 | 0.0 | 1.0 | 0.00 | 0.00 | 0.00 | 1003.0 | ||
| 20260506224501 | 0 | 0.0 | 0.0 | 0.00 | 0.00 | 0.00 | 1002.9 | ||
| 20260506223002 | 0 | 0.0 | 1.0 | 0.00 | 0.00 | 0.00 | 1002.8 | ||
| 20260506221502 | 0 | 0.0 | 0.0 | 0.00 | 0.00 | 0.00 | 1002.8 | ||
| 20260506214502 | 0 | 0.0 | 2.0 | 0.00 | 0.00 | 0.00 | 1002.6 | ||
| 20260506213002 | 0 | 1.0 | 3.0 | 0.00 | 0.00 | 0.00 | 1002.7 | ||
| 20260506211501 | 0 | 0.0 | 1.0 | 0.00 | 0.00 | 0.00 | 1002.7 | ||
| 20260506210001 | 0 | 0.0 | 1.0 | 0.00 | 0.00 | 0.00 | 1002.7 | ||
| 20260506204501 | 0 | 1.0 | 4.0 | 0.00 | 0.00 | 0.00 | 1002.6 | ||
| 20260506203001 | 0 | 2.0 | 8.0 | 0.00 | 0.00 | 0.00 | 1002.4 | ||
| 20260506201502 | 0 | 4.0 | 11.0 | 0.00 | 0.00 | 0.00 | 1002.4 | ||
| 20260506200002 | 0 | 3.0 | 9.0 | 0.00 | 0.00 | 0.00 | 1002.2 | ||
| 20260506194501 | 0 | 2.0 | 12.0 | 0.00 | 0.00 | 0.00 | 1002.1 | ||
| 20260506193002 | 0 | 4.0 | 7.0 | 0.00 | 0.00 | 0.00 | 1001.9 | ||
| 20260506191501 | 0 | 2.0 | 7.0 | 0.00 | 0.00 | 0.00 | 1001.4 | ||
| 20260506190003 | 0 | 3.0 | 10.0 | 0.00 | 0.00 | 0.00 | 1001.2 | ||
| 20260506184501 | 0 | 3.0 | 8.0 | 0.00 | 0.00 | 0.00 | 1000.9 | ||
| 20260506183001 | 0 | 5.0 | 8.0 | 0.00 | 0.00 | 0.00 | 1000.9 | ||
| 20260506181501 | 0 | 4.0 | 9.0 | 0.00 | 0.00 | 0.00 | 1000.9 | ||
| 20260506180002 | 0 | 4.0 | 10.0 | 0.00 | 0.00 | 0.00 | 1000.9 | ||
| 20260506174502 | 0 | 5.0 | 8.0 | 0.00 | 0.00 | 0.00 | 1000.8 | ||
| 20260506173003 | 0 | 5.0 | 10.0 | 0.00 | 0.00 | 0.00 | 1000.7 | ||
| 20260506171501 | 0 | 6.0 | 11.0 | 0.00 | 0.00 | 0.00 | 1000.7 | ||
| 20260506170001 | 0 | 6.0 | 11.0 | 0.00 | 0.00 | 0.00 | 1000.8 | ||
| 20260506164502 | 0 | 7.0 | 10.0 | 0.00 | 0.00 | 0.00 | 1000.8 | ||
| 20260506163003 | 0 | 6.0 | 11.0 | 0.00 | 0.00 | 0.00 | 1000.9 | ||
| 20260506161501 | 0 | 8.0 | 13.0 | 0.00 | 0.00 | 0.00 | 1000.8 | ||
| 20260506160002 | 0 | 6.0 | 17.0 | 0.00 | 0.00 | 0.00 | 1000.8 | ||
| 20260506154502 | 0 | 8.0 | 14.0 | 0.00 | 0.00 | 0.00 | 1000.7 | ||
| 20260506153002 | 0 | 9.0 | 16.0 | 0.00 | 0.00 | 0.00 | 1000.8 | ||
| 20260506151502 | 0 | 7.0 | 13.0 | 0.00 | 0.00 | 0.00 | 1000.7 | ||
| 20260506150002 | 0 | 7.0 | 17.0 | 0.00 | 0.00 | 0.00 | 1000.8 | ||
| 20260506144501 | 0 | 7.0 | 16.0 | 0.00 | 0.00 | 0.00 | 1000.9 |